Location: Firdgum
(53.2488°N, 5.5615°E)
Time: 04:29:40
(UTC+00:00)

STARLINK 1030 - Pass Details

Date: 08 December 2019
Orbit: 449 x 450 km, 53.0° (Epoch: 19 January)

Event Time Altitude Azimuth Distance (km) Brightness Sun altitude
Exits shadow 05:31:59 21° 213° (SSW) 999 4.8 -17.6°
Drops below altitude 10° 05:34:28 10° 165° (SSE) 1,488 6.2 -17.3°
Sets 05:36:53 0° 148° (SSE) 2,359 7.6 -16.9°
